Beckley, WV

11:58 PM EDT on April 25, 2018 (GMT -0400)
Raleigh County Memorial

Weather History for KBKW - February, 2013

Change the Weather History Date:

Thursday, February 28, 2013

  Actual Average Record
Temperature  
Mean Temperature 29 °F 37 °F  
Max Temperature 31 °F 46 °F 69 °F (1918)
Min Temperature 27 °F 28 °F -8 °F (1934)
Degree Days  
Heating Degree Days 36 28  
Month to date heating degree days 898 857  
Since 1 July heating degree days 3814 4001  
Cooling Degree Days 0 0  
Month to date cooling degree days 0 0  
Year to date cooling degree days 0 0  
Moisture  
Dew Point 25 °F    
Average Humidity 81    
Maximum Humidity 92    
Minimum Humidity 69    
Precipitation  
Precipitation 0.05 in 0.11 in 0.98 in (2011)
Month to date precipitation 1.42 2.76  
Year to date precipitation 6.19 5.57  
Snow  
Snow 1.10 in 0.50 in 6.00 in (2005)
Month to date snowfall 11.5 16.6  
Since 1 September snowfall 53.9 50.5  
Snow Depth 3.00 in    
Sea Level Pressure  
Sea Level Pressure 29.75 in    
Wind  
Wind Speed 10 mph (West)    
Max Wind Speed 20 mph    
Max Gust Speed 28 mph    
Visibility 5 miles    
Events Rain , Snow    
T = Trace of Precipitation, MM = Missing Value Source: NWS Daily Summary

Daily Weather History Graph

Daily Weather History Graph

Search for Another Location

Airport or City:

Astronomy

Feb. 28, 2013 Rise Set
Actual Time 6:57 AM EST 6:17 PM EST
Civil Twilight 6:30 AM EST 6:43 PM EST
Nautical Twilight 6:00 AM EST 7:14 PM EST
Astronomical Twilight 5:29 AM EST 7:44 PM EST
Moon 9:38 PM EST (2/28) 8:09 AM EST (2/28)
Length of Visible Light 12h 13m
Length of Day
11h 20m
Waning Gibbous, 91% of the Moon is Illuminated
Feb 28
Waning Gibbous
Mar 4
Last Quarter
Mar 11
New
Mar 19
First Quarter
Mar 27
Full

Hourly Weather History & Observations

Time (EST) Temp. Windchill Dew Point Humidity Pressure Visibility Wind Dir Wind Speed Gust Speed Precip Events Conditions
12:00 AM 30.2 °F 22.6 °F 28.4 °F 93% 29.69 in 1.8 mi WNW 8.1 mph - 0.01 in Snow Light Snow
12:02 AM 30.2 °F 21.9 °F 28.4 °F 93% 29.69 in 2.5 mi West 9.2 mph - N/A Snow Light Snow
12:27 AM 30.2 °F 21.9 °F 28.4 °F 93% 29.68 in 4.0 mi West 9.2 mph - 0.01 in Snow Light Snow
12:43 AM 30.2 °F 22.6 °F 26.6 °F 86% 29.68 in 5.0 mi West 8.1 mph - 0.01 in Snow Light Snow
12:51 AM 30.0 °F 20.5 °F 27.0 °F 88% 29.75 in 5.0 mi West 11.5 mph - 0.01 in Snow Light Snow
1:10 AM 30.2 °F 21.9 °F 26.6 °F 86% 29.68 in 2.5 mi West 9.2 mph - 0.00 in Snow Light Snow
1:19 AM 30.2 °F 21.9 °F 26.6 °F 86% 29.68 in 3.0 mi West 9.2 mph - 0.00 in Snow Light Snow
1:37 AM 30.2 °F 21.3 °F 26.6 °F 86% 29.68 in 4.0 mi West 10.4 mph - 0.00 in Snow Light Snow
1:48 AM 30.2 °F 21.9 °F 26.6 °F 86% 29.67 in 9.0 mi West 9.2 mph - 0.00 in Snow Light Snow
1:49 AM 30.0 °F 21.7 °F 27.0 °F 88% 29.74 in 9.0 mi West 9.2 mph - 0.00 in   Overcast
1:57 AM 30.2 °F 21.9 °F 26.6 °F 86% 29.67 in 9.0 mi West 9.2 mph - 0.00 in Snow Light Snow
2:22 AM 30.2 °F 23.4 °F 26.6 °F 86% 29.67 in 10.0 mi WNW 6.9 mph - 0.00 in   Overcast
2:51 AM 28.9 °F 21.9 °F 25.0 °F 85% 29.73 in 10.0 mi WNW 6.9 mph - 0.00 in   Overcast
3:47 AM 28.4 °F 23.3 °F 24.8 °F 86% 29.66 in 5.0 mi West 4.6 mph - 0.00 in Snow Light Snow
3:51 AM 28.9 °F 25.2 °F 26.1 °F 89% 29.73 in 5.0 mi West 3.5 mph - 0.00 in Snow Light Snow
4:12 AM 28.4 °F 22.2 °F 26.6 °F 93% 29.66 in 4.0 mi West 5.8 mph - 0.00 in Snow Light Snow
4:23 AM 28.4 °F 22.2 °F 26.6 °F 93% 29.66 in 2.5 mi West 5.8 mph - 0.00 in Snow Light Snow
4:25 AM 28.4 °F 21.2 °F 26.6 °F 93% 29.66 in 3.0 mi West 6.9 mph - 0.00 in Snow Light Snow
4:43 AM 28.4 °F 22.2 °F 26.6 °F 93% 29.66 in 6.0 mi West 5.8 mph - 0.00 in Snow Light Snow
4:51 AM 28.9 °F 21.1 °F 26.1 °F 89% 29.72 in 6.0 mi West 8.1 mph - 0.00 in Snow Light Snow
5:27 AM 28.4 °F 21.2 °F 26.6 °F 93% 29.66 in 5.0 mi West 6.9 mph - 0.00 in Snow Light Snow
5:51 AM 28.9 °F 20.4 °F 25.0 °F 85% 29.73 in 9.0 mi West 9.2 mph - 0.00 in Snow Light Snow
6:21 AM 28.4 °F 22.2 °F 24.8 °F 86% 29.66 in 6.0 mi NW 5.8 mph - 0.00 in Snow Light Snow
6:34 AM 28.4 °F 15.8 °F 23.0 °F 80% 29.66 in 8.0 mi West 18.4 mph 26.5 mph 0.00 in Snow Light Snow
6:42 AM 28.4 °F 18.0 °F 21.2 °F 74% 29.67 in 9.0 mi West 12.7 mph 27.6 mph 0.00 in Snow Light Snow
6:51 AM 28.0 °F 15.3 °F 21.9 °F 78% 29.74 in 10.0 mi West 18.4 mph 27.6 mph 0.00 in   Overcast
7:51 AM 28.0 °F 18.6 °F 19.9 °F 72% 29.76 in 10.0 mi WNW 10.4 mph - N/A   Mostly Cloudy
8:04 AM 26.6 °F 15.2 °F 19.4 °F 74% 29.69 in 10.0 mi WNW 13.8 mph 18.4 mph N/A   Overcast
8:48 AM 26.6 °F 17.5 °F 21.2 °F 80% 29.70 in 2.0 mi West 9.2 mph - 0.00 in Snow Light Snow
8:51 AM 26.6 °F 19.1 °F 21.2 °F 80% 29.70 in 2.0 mi West 6.9 mph - N/A Snow Light Snow
9:08 AM 26.6 °F 19.1 °F 23.0 °F 86% 29.70 in 2.5 mi West 6.9 mph - 0.00 in Snow Light Snow
9:22 AM 26.6 °F 17.5 °F 23.0 °F 86% 29.70 in 1.8 mi West 9.2 mph - 0.00 in Snow Light Snow
9:26 AM 26.6 °F 17.5 °F 23.0 °F 86% 29.70 in 2.0 mi West 9.2 mph - 0.00 in Snow Light Snow
9:32 AM 26.6 °F 17.5 °F 23.0 °F 86% 29.70 in 4.0 mi West 9.2 mph - 0.00 in Snow Light Snow
9:40 AM 26.6 °F 18.2 °F 23.0 °F 86% 29.70 in 4.0 mi West 8.1 mph - 0.00 in Snow Light Snow
9:51 AM 28.0 °F 20.0 °F 23.0 °F 81% 29.78 in 3.0 mi WNW 8.1 mph - 0.00 in Snow Light Snow
9:57 AM 26.6 °F 16.2 °F 21.2 °F 80% 29.71 in 2.5 mi West 11.5 mph - 0.00 in Snow Light Snow
10:04 AM 26.6 °F 16.8 °F 21.2 °F 80% 29.71 in 2.5 mi West 10.4 mph - 0.00 in Snow Light Snow
10:16 AM 26.6 °F 18.2 °F 23.0 °F 86% 29.71 in 1.2 mi WNW 8.1 mph - 0.01 in Snow Light Snow
10:26 AM 28.4 °F 21.2 °F 24.8 °F 86% 29.71 in 1.2 mi WNW 6.9 mph - 0.01 in Snow Light Snow
10:37 AM 28.4 °F 19.1 °F 24.8 °F 86% 29.71 in 2.0 mi West 10.4 mph - 0.01 in Snow Light Snow
10:43 AM 28.4 °F 19.1 °F 24.8 °F 86% 29.71 in 5.0 mi West 10.4 mph 19.6 mph 0.01 in Snow Light Snow
10:51 AM 28.9 °F 21.1 °F 24.1 °F 82% 29.79 in 8.0 mi West 8.1 mph - 0.01 in Snow Light Snow
11:47 AM 28.4 °F 18.0 °F 23.0 °F 80% 29.72 in 6.0 mi West 12.7 mph - 0.00 in Snow Light Snow
11:51 AM 28.0 °F 18.1 °F 23.0 °F 81% 29.81 in 6.0 mi West 11.5 mph - 0.00 in Snow Light Snow
12:09 PM 28.4 °F 19.1 °F 23.0 °F 80% 29.72 in 4.0 mi West 10.4 mph - 0.00 in Snow Light Snow
12:17 PM 28.4 °F 17.0 °F 23.0 °F 80% 29.72 in 6.0 mi West 15.0 mph - 0.00 in Snow Light Snow
12:29 PM 28.4 °F 17.0 °F 23.0 °F 80% 29.72 in 7.0 mi West 15.0 mph - 0.00 in Snow Light Snow
12:51 PM 28.0 °F 19.3 °F 23.0 °F 81% 29.81 in 6.0 mi West 9.2 mph - 0.00 in Snow Light Snow
1:51 PM 28.0 °F 17.5 °F 24.1 °F 85% 29.81 in 5.0 mi West 12.7 mph - 0.00 in   Overcast
2:03 PM 28.4 °F 20.4 °F 24.8 °F 86% 29.72 in 5.0 mi West 8.1 mph - 0.00 in   Overcast
2:24 PM 28.4 °F 17.5 °F 24.8 °F 86% 29.73 in 4.0 mi West 13.8 mph - 0.00 in Rain Light Freezing Rain
2:37 PM 28.4 °F 19.7 °F 24.8 °F 86% 29.73 in 2.5 mi West 9.2 mph - 0.00 in Snow Light Snow
2:51 PM 28.0 °F 18.1 °F 25.0 °F 88% 29.82 in 2.5 mi West 11.5 mph - 0.00 in Snow Light Snow
3:03 PM 28.4 °F 18.5 °F 24.8 °F 86% 29.73 in 3.0 mi West 11.5 mph - 0.00 in Snow Light Snow
3:51 PM 28.0 °F 18.1 °F 25.0 °F 88% 29.83 in 3.0 mi West 11.5 mph - 0.01 in Snow Light Snow
4:51 PM 28.0 °F 17.5 °F 25.0 °F 88% 29.84 in 5.0 mi West 12.7 mph - 0.00 in Snow Light Snow
5:31 PM 28.4 °F 18.5 °F 24.8 °F 86% 29.76 in 3.0 mi West 11.5 mph 20.7 mph 0.00 in Snow Light Snow
5:51 PM 28.9 °F 18.6 °F 25.0 °F 85% 29.87 in 5.0 mi West 12.7 mph 21.9 mph 0.00 in Snow Light Snow
6:51 PM 28.9 °F 18.6 °F 25.0 °F 85% 29.89 in 3.0 mi West 12.7 mph - 0.00 in Snow Light Snow
7:00 PM 28.4 °F 18.5 °F 24.8 °F 86% 29.80 in 2.0 mi WNW 11.5 mph - 0.00 in Snow Light Snow
7:04 PM 28.4 °F 18.5 °F 24.8 °F 86% 29.80 in 1.8 mi WNW 11.5 mph - 0.00 in Snow Light Snow
7:25 PM 28.4 °F 18.5 °F 24.8 °F 86% 29.81 in 2.5 mi WNW 11.5 mph - 0.01 in Snow Light Snow
7:51 PM 28.0 °F 19.3 °F 25.0 °F 88% 29.91 in 2.0 mi WNW 9.2 mph 17.3 mph 0.02 in Snow Light Snow
8:02 PM 28.4 °F 19.7 °F 24.8 °F 86% 29.81 in 2.0 mi WNW 9.2 mph 18.4 mph 0.00 in Snow Light Snow
8:17 PM 28.4 °F 19.1 °F 26.6 °F 93% 29.81 in 4.0 mi WNW 10.4 mph 17.3 mph 0.00 in Snow Light Snow
8:32 PM 28.4 °F 18.0 °F 26.6 °F 93% 29.81 in 6.0 mi WNW 12.7 mph 21.9 mph 0.00 in Rain Light Freezing Rain
8:51 PM 28.9 °F 18.6 °F 26.1 °F 89% 29.91 in 4.0 mi WNW 12.7 mph 24.2 mph 0.00 in Rain Light Freezing Rain
9:12 PM 28.4 °F 17.5 °F 26.6 °F 93% 29.81 in 5.0 mi WNW 13.8 mph 19.6 mph 0.00 in Rain Light Freezing Rain
9:51 PM 28.9 °F 20.4 °F 26.1 °F 89% 29.90 in 3.0 mi WNW 9.2 mph - 0.00 in Snow Light Snow
10:07 PM 28.4 °F 19.1 °F 26.6 °F 93% 29.81 in 2.5 mi WNW 10.4 mph - 0.00 in Snow Light Snow
10:29 PM 28.4 °F 19.7 °F 26.6 °F 93% 29.81 in 3.0 mi WNW 9.2 mph - 0.00 in Snow Light Snow
10:51 PM 28.9 °F 19.8 °F 27.0 °F 92% 29.90 in 3.0 mi WNW 10.4 mph - 0.00 in Snow Light Snow
11:38 PM 28.4 °F 22.2 °F 26.6 °F 93% 29.82 in 2.0 mi WNW 5.8 mph - 0.01 in Snow Light Snow
11:51 PM 28.9 °F 21.9 °F 27.0 °F 92% 29.91 in 2.5 mi West 6.9 mph - 0.01 in Snow Light Snow